Location: ????????
(55.0559°N, 39.1270°E)
Time: 13:49:54
(UTC+00:00)

NOSS 2-1 (D) - Visible Passes

Search period start: 14 February 2026 00:00
Search period end: 24 February 2026 00:00
Orbit: 374 x 1674 km, 63.3° (Epoch: 13 February)

Date Brightness Start Highest point End Pass type
(mag) Time Alt. Az. Time Alt. Az. Time Alt. Az.
14 Feb 4.2 02:08:57 33° SE 02:08:57 33° SE 02:11:36 10° ENE visible
14 Feb 3.4 03:54:38 10° W 03:57:29 34° NNW 04:00:15 10° NE visible
15 Feb 2.5 02:48:29 54° WSW 02:49:07 83° NW 02:52:05 10° NE visible
16 Feb 5.1 01:42:15 23° E 01:42:15 23° E 01:43:41 10° ENE visible
16 Feb 3.4 03:27:55 20° W 03:29:35 34° NNW 03:32:20 10° NE visible
17 Feb 3.0 02:21:37 60° NE 02:21:37 60° NE 02:24:08 10° NE visible
18 Feb 6.0 01:15:16 13° ENE 01:15:16 13° ENE 01:15:44 10° ENE visible
18 Feb 3.5 03:00:56 29° WNW 03:01:37 33° NNW 03:04:22 10° NE visible
19 Feb 4.5 01:54:32 29° NE 01:54:32 29° NE 01:56:09 10° NE visible
19 Feb 4.3 03:40:11 12° WNW 03:42:17 21° NNW 03:44:39 10° NE visible
20 Feb 3.6 02:33:45 33° NNW 02:33:45 33° NNW 02:36:21 10° NE visible
21 Feb 5.4 01:27:16 18° NE 01:27:16 18° NE 01:28:07 10° NE visible
21 Feb 4.3 03:12:55 16° NW 03:14:15 21° NNW 03:16:38 10° NE visible
22 Feb 4.3 02:06:25 27° N 02:06:25 27° N 02:08:17 10° NE visible
23 Feb 6.1 00:59:52 11° NE 00:59:52 11° NE 01:00:01 10° NE visible
23 Feb 4.3 02:45:31 19° NNW 02:46:11 20° NNW 02:48:32 10° NE visible
